Station 51WH0 - WHOTS - Woods Hole Ocean Time-series Image indicating link to RSS feed of recent meteorological observations for station 51WH0


Conditions at 51WH0 as of
(12:30 pm HAST)
2230 GMT on 06/21/2024:
     

Click on the graph icon in the table below to see a time series plot of the last five days of that observation.

5-day plot - Wind Direction Wind Direction (WDIR): E ( 80 deg true )
5-day plot - Wind Speed Wind Speed (WSPD): 15.5 kts
5-day plot - Atmospheric Pressure Atmospheric Pressure (PRES):30.11 in
5-day plot - Air Temperature Air Temperature (ATMP): 77.4 °F
5-day plot - Water Temperature Water Temperature (WTMP): 77.2 °F
5-day plot - Salinity Salinity (SAL): 35.00 psu
5-day plot - Dew Point Dew Point (DEWP): 71.6 °F
5-day plot - Heat Index Heat Index (HEAT): 79.2 °F
5-day plot - Wind Speed at 10 Meters Wind Speed at 10 meters (WSPD10M): 17.5 kts
5-day plot - Wind Speed at 20 Meters Wind Speed at 20 meters (WSPD20M): 19.4 kts
5-day plot -  Wind Speed, Wind Gust and Atmospheric Pressure Combined plot of Wind Speed, Gust, and Air Pressure
Previous observations
TIME
(HAST)
5-day plot - Wind Direction
WDIR
 
5-day plot - Wind Speed
WSPD
kts
5-day plot - Wind Gust
GST
kts
5-day plot - Wave Height
WVHT
ft
5-day plot - Dominant Wave Period
DPD
sec
5-day plot - Average Wave Period
APD
sec
5-day plot - Mean Wave Direction
MWD
 
5-day plot - Atmospheric Pressure
PRES
in
5-day plot - Pressure Tendency
PTDY
in
5-day plot - Air Temperature
ATMP
°F
5-day plot - Water Temperature
WTMP
°F
5-day plot - Dew Point
DEWP
°F
5-day plot - Salinity
SAL
psu
5-day plot - Visibility
VIS
nmi
5-day plot - Tide (above MLLW)
TIDE
ft
2024-06-21 11:30 amENE 17.5-----30.10- 77.5 77.2 71.4 35.00--
2024-06-21 10:30 amENE 17.5-----30.11- 77.4 77.2 71.4 35.00--
2024-06-21 09:30 amENE 17.5-----30.11- 77.2 77.2 72.0 35.00--
2024-06-21 08:30 amENE 17.5-----30.11- 77.4 77.2 71.4 35.00--
2024-06-21 07:30 am E 15.5-----30.10- 76.1 77.0 71.6 35.10--
2024-06-21 06:30 am E 15.5-----30.09- 75.0 77.0 71.6 35.10--
2024-06-21 05:30 am E 15.5-----30.07- 75.6 77.0 71.2 35.10--
2024-06-21 04:30 am E 15.5-----30.06- 75.0 77.0 71.4 35.10--
2024-06-21 03:30 am E 15.5-----30.06- 74.5 77.0 71.2 35.10--
2024-06-21 02:30 am E 13.6-----30.07- 75.4 76.8 71.4 35.00--
2024-06-21 01:30 am E 13.6-----30.08- 75.2 77.0 71.4 35.10--
2024-06-21 12:30 am E 15.5-----30.09- 75.9 77.0 71.2 35.10--
2024-06-20 11:30 pm E 15.5-----30.11- 76.8 76.8 70.3 35.00--
2024-06-20 10:30 pm E 15.5-----30.11- 76.8 76.8 69.6 35.00--
2024-06-20 09:30 pm E 17.5-----30.10- 76.8 77.0 69.3 35.00--
2024-06-20 08:30 pm E 17.5-----30.09- 76.8 77.0 69.3 35.00--
2024-06-20 07:30 pm E 17.5-----30.08- 76.8 77.0 69.8 35.00--
2024-06-20 06:30 pm E 17.5-----30.06- 77.0 77.2 69.4 35.00--
2024-06-20 05:30 pm E 17.5-----30.06- 77.2 77.2 69.6 35.00--
2024-06-20 04:30 pm E 17.5-----30.05- 77.0 77.2 70.0 34.90--
2024-06-20 03:30 pm E 17.5-----30.06- 76.8 77.2 70.2 34.90--
2024-06-20 02:30 pm E 15.5-----30.06- 76.1 77.2 70.2 35.00--
2024-06-20 01:30 pm E 15.5-----30.08- 75.0 77.2 70.2 35.00--

Ocean Conditions at 51WH0 as of
(12:30 pm HAST)
2230 GMT on 06/21/2024:

These oceanographic data are displayed in rounded times.

     

Click on the graph icon in the table below to see a time series plot of the last five days of that observation.

Depth (DEPTH): 3.3 ft
5-day plot - Ocean Temperature Ocean Temperature (OTMP):77.18 °F
5-day plot - Salinity Salinity (SAL):35.00 psu
Previous observations
TIME
(HAST)
DEPTH
ft
5-day plot - Ocean Temperature
OTMP
°F
5-day plot - Conductivity
COND
mS/cm
5-day plot - Salinity
SAL
psu
5-day plot - Oxygen Concentration
O2%
%
5-day plot - Oxygen Concentration
O2PPM
ppm
5-day plot - Chlorophyll
CLCON
ug/l
5-day plot - Turbidity
TURB
FTU
5-day plot - pH
PH
 
5-day plot - Eh
EH
mv
2024-06-21 11:30 am 3.377.18-35.00------
2024-06-21 10:30 am 3.377.18-35.00------
2024-06-21 09:30 am 3.377.18-35.00------
2024-06-21 08:30 am 3.377.18-35.00------
2024-06-21 07:30 am 3.377.00-35.10------
2024-06-21 06:30 am 3.377.00-35.10------
2024-06-21 05:30 am 3.377.00-35.10------
2024-06-21 04:30 am 3.377.00-35.10------
2024-06-21 03:30 am 3.377.00-35.10------
2024-06-21 02:30 am 3.376.82-35.00------
2024-06-21 01:30 am 3.377.00-35.10------
2024-06-21 12:30 am 3.377.00-35.10------
2024-06-20 11:30 pm 3.376.82-35.00------
2024-06-20 10:30 pm 3.376.82-35.00------
2024-06-20 09:30 pm 3.377.00-35.00------
2024-06-20 08:30 pm 3.377.00-35.00------
2024-06-20 07:30 pm 3.377.00-35.00------
2024-06-20 06:30 pm 3.377.18-35.00------
2024-06-20 05:30 pm 3.377.18-35.00------
2024-06-20 04:30 pm 3.377.18-34.90------
2024-06-20 03:30 pm 3.377.18-34.90------
2024-06-20 02:30 pm 3.377.18-35.00------
2024-06-20 01:30 pm 3.377.18-35.00------

Solar Radiation Conditions at 51WH0 as of
(12:30 pm HAST)
2230 GMT on 06/21/2024:
     

Click on the graph icon in the table below to see a time series plot of the last five days of that observation.

5-day plot - Short Wave Radiation 2 Short Wave Radiation 2 (SWRAD):1042.6watts/meter2
5-day plot - Long Wave Radiation Long Wave Radiation (LWRAD): 385.9watts/meter2
Previous observations
TIME
(HAST)
5-day plot - Short Wave Radiation 1
SRAD1
w/m2
5-day plot - Short Wave Radiation 2
SRAD2
w/m2
5-day plot - Long Wave Radiation
LRAD
w/m2
2024-06-21 11:30 am- 942.0 397.2
2024-06-21 10:30 am- 853.7 392.8
2024-06-21 09:30 am- 632.3 390.9
2024-06-21 08:30 am- 416.7 398.8
2024-06-21 07:30 am- 160.4 422.6
2024-06-21 06:30 am- 37.4 412.7
2024-06-21 05:30 am- 7.3 404.6
2024-06-21 04:30 am- 5.1 409.4
2024-06-21 03:30 am- 5.0 405.5
2024-06-21 02:30 am- 5.1 405.8
2024-06-21 01:30 am- 5.0 396.6
2024-06-21 12:30 am- 4.6 415.9
2024-06-20 11:30 pm- 5.1 402.8
2024-06-20 10:30 pm- 5.0 379.2
2024-06-20 09:30 pm- 5.0 378.5
2024-06-20 08:30 pm- 5.0 381.3
2024-06-20 07:30 pm- 11.2 384.7
2024-06-20 06:30 pm- 132.4 385.0
2024-06-20 05:30 pm- 345.9 383.0
2024-06-20 04:30 pm- 468.9 392.1
2024-06-20 03:30 pm- 395.7 419.8
2024-06-20 02:30 pm- 850.1 409.3
2024-06-20 01:30 pm- 559.3 421.6